TimeCST,TemperatureF,Dew PointF,Humidity,Sea Level PressureIn,VisibilityMPH,Wind Direction,Wind SpeedMPH,Gust SpeedMPH,PrecipitationIn,Events,Conditions,WindDirDegrees,DateUTC
12:53 AM,48.0,25.0,41,29.62,10.0,SW,11.5,-,N/A,,Clear,220,2011-11-12 06:53:00
1:53 AM,48.9,24.1,38,29.57,10.0,SSW,11.5,-,N/A,,Clear,200,2011-11-12 07:53:00
2:53 AM,51.1,21.0,31,29.53,10.0,SW,25.3,32.2,N/A,,Clear,230,2011-11-12 08:53:00
3:53 AM,50.0,19.9,31,29.53,10.0,SW,18.4,27.6,N/A,,Clear,230,2011-11-12 09:53:00
4:53 AM,48.9,21.0,33,29.52,10.0,SW,17.3,-,N/A,,Clear,230,2011-11-12 10:53:00
5:53 AM,48.0,21.0,34,29.52,10.0,WSW,16.1,-,N/A,,Clear,240,2011-11-12 11:53:00
6:53 AM,46.9,21.9,37,29.54,10.0,WSW,19.6,26.5,N/A,,Clear,250,2011-11-12 12:53:00
7:53 AM,48.9,23.0,36,29.57,10.0,WSW,18.4,-,N/A,,Clear,250,2011-11-12 13:53:00
8:53 AM,51.1,23.0,33,29.59,10.0,WSW,16.1,-,N/A,,Clear,240,2011-11-12 14:53:00
9:53 AM,57.0,25.0,29,29.59,10.0,WSW,17.3,-,N/A,,Clear,250,2011-11-12 15:53:00
10:53 AM,66.0,26.1,22,29.58,10.0,West,12.7,-,N/A,,Clear,270,2011-11-12 16:53:00
11:53 AM,70.0,23.0,17,29.57,10.0,West,17.3,25.3,N/A,,Clear,260,2011-11-12 17:53:00
12:53 PM,72.0,24.1,17,29.54,10.0,West,11.5,-,N/A,,Clear,260,2011-11-12 18:53:00
1:53 PM,75.0,24.1,15,29.50,10.0,West,11.5,18.4,N/A,,Clear,280,2011-11-12 19:53:00
2:53 PM,77.0,25.0,15,29.48,10.0,West,9.2,-,N/A,,Clear,280,2011-11-12 20:53:00
3:53 PM,77.0,24.1,14,29.49,10.0,WSW,11.5,-,N/A,,Clear,250,2011-11-12 21:53:00
4:53 PM,71.1,26.1,19,29.50,10.0,SW,12.7,-,N/A,,Clear,230,2011-11-12 22:53:00
5:53 PM,66.9,24.1,20,29.51,10.0,SW,18.4,24.2,N/A,,Clear,220,2011-11-12 23:53:00
6:53 PM,61.0,24.1,24,29.55,10.0,SSW,12.7,-,N/A,,Clear,210,2011-11-13 00:53:00
7:53 PM,60.1,24.1,25,29.54,10.0,SW,15.0,-,N/A,,Clear,230,2011-11-13 01:53:00
8:53 PM,57.9,24.1,27,29.54,10.0,SW,19.6,-,N/A,,Clear,230,2011-11-13 02:53:00
9:53 PM,57.0,26.1,30,29.52,10.0,SW,19.6,25.3,N/A,,Clear,230,2011-11-13 03:53:00
10:53 PM,57.9,27.0,31,29.49,10.0,SW,19.6,-,N/A,,Clear,230,2011-11-13 04:53:00
11:53 PM,57.9,28.0,32,29.48,10.0,SW,20.7,28.8,N/A,,Clear,220,2011-11-13 05:53:00